[[{"header":{"parameterUnit":"m.s-1","parameterCategory":1,"la1":30.2991,"la2":30.254,"lo1":-89.0895,"lo2":-89.0444,"dy":0.0017,"dx":0.0017,"nx":28,"ny":28,"refTime":"2024-05-03T03:00:00:Z","depth":0,"parameterNumber":2,"parameterNumberName":"U-component_of_WINDS"},"data":[0,0,0,0,0,0,0,0,0,0,0,0,0,0,0,0,0,0,0,0,0,0,0,0,0,0,0,0,0,0,0,0,0,0,0,0,0,0,0,0,0,0,0,0,0,0,0,0,0,0,0,0,0,0,0,0,0,0,-1.3392,-1.3392,0,-1.3364,-1.3364,-1.3364,-1.3321,-1.332,-1.332,-1.3319,-1.3291,-1.3291,-1.3291,0,0,0,0,0,0,0,0,0,0,0,0,0,-1.3409,-1.3409,-1.3392,-1.3392,-1.3391,-1.3365,-1.3364,-1.3364,-1.3321,-1.332,-1.3319,-1.3318,-1.3291,-1.3291,-1.3291,0,0,0,0,0,0,0,0,0,0,0,0,0,-1.3393,-1.3409,-1.3392,-1.3367,-1.3364,-1.3365,-1.3364,-1.3364,-1.3321,-1.332,-1.3319,-1.3318,-1.3291,-1.3291,-1.3291,-1.3314,0,0,-1.3291,-1.3291,0,0,0,0,0,0,0,0,-1.3394,-1.3393,-1.3371,-1.3369,-1.3366,-1.3345,-1.336,-1.3347,-1.3322,-1.3338,-1.3319,-1.3317,-1.331,-1.3309,-1.3306,-1.3313,-1.3312,-1.3291,-1.3291,-1.3291,-1.3291,0,0,0,0,0,0,0,-1.3395,-1.3394,-1.3381,-1.3371,-1.3367,-1.3357,-1.3354,-1.3357,-1.3331,-1.3336,-1.3333,-1.333,-1.3309,-1.3306,-1.3305,-1.3311,-1.3291,-1.3291,-1.3291,-1.3291,-1.3336,-1.3338,0,0,0,0,0,0,-1.34,-1.3395,-1.3382,-1.338,-1.3377,-1.3358,-1.3354,-1.3353,-1.3331,-1.3326,-1.3331,-1.3328,-1.3307,-1.3305,-1.3304,-1.3329,-1.3291,-1.3291,-1.3291,-1.3335,-1.3337,-1.3338,0,0,0,0,0,0,-1.3401,-1.3399,-1.3383,-1.3387,-1.3384,-1.3359,-1.3358,-1.3353,-1.335,-1.3327,-1.3322,-1.3334,-1.3306,-1.3304,-1.3312,-1.3328,-1.3291,-1.3291,-1.3334,-1.3336,-1.3337,-1.3381,0,0,0,0,0,0,-1.3401,-1.34,-1.3408,-1.3387,-1.3384,-1.3392,-1.3359,-1.3353,-1.335,-1.3346,-1.3328,-1.3324,-1.3305,-1.3312,-1.3312,-1.3327,-1.3291,-1.3332,-1.3335,-1.3337,-1.3378,-1.3384,-1.3389,0,0,0,0,0,-1.3402,-1.3421,-1.3409,-1.3407,-1.3394,-1.3393,-1.3391,-1.3368,-1.3352,-1.336,-1.3345,-1.3324,-1.3326,-1.3314,-1.3313,-1.3328,-1.3331,-1.3334,-1.3337,-1.3375,-1.3383,-1.3389,0,0,0,0,0,0,-1.3445,-1.3418,-1.3404,-1.3417,-1.3407,-1.3385,-1.3395,-1.3377,-1.3372,-1.3368,-1.3341,-1.3337,-1.3349,-1.3339,-1.3326,-1.3349,-1.3326,-1.3328,-1.3355,-1.3362,-1.3367,-1.3369,-1.3291,0,0,0,0,0,-1.3456,-1.3457,-1.3434,-1.3447,-1.3443,-1.342,-1.3419,-1.3403,-1.3392,-1.3387,-1.3373,-1.3363,-1.3362,-1.3361,-1.3359,-1.3376,-1.3372,-1.3387,-1.3392,-1.3397,-1.3399,-1.3408,-1.3415,-1.3347,-1.3347,-1.3347,0,0,-1.3478,-1.3464,-1.3466,-1.3456,-1.3446,-1.3448,-1.3417,-1.342,-1.3422,-1.3388,-1.3395,-1.3384,-1.3371,-1.3385,-1.339,-1.3377,-1.3417,-1.34,-1.3404,-1.3404,-1.3412,-1.3418,-1.3424,-1.3349,-1.3348,-1.3348,0,0,-1.352,-1.351,-1.352,-1.3511,-1.3498,-1.3482,-1.3485,-1.3466,-1.3457,-1.3463,-1.3438,-1.344,-1.3438,-1.343,-1.3426,-1.3466,-1.3446,-1.3466,-1.3495,-1.3504,-1.3509,-1.3514,-1.3528,-1.3533,-1.3468,-1.3468,-1.3469,0,-1.355,-1.3552,-1.3528,-1.3533,-1.3529,-1.3498,-1.3509,-1.3502,-1.3488,-1.3487,-1.3473,-1.347,-1.3459,-1.347,-1.348,-1.3477,-1.348,-1.3467,-1.351,-1.3515,-1.3518,-1.3532,-1.3537,-1.3471,-1.3471,-1.347,-1.347,0,-1.3589,-1.3591,-1.3601,-1.3589,-1.3586,-1.3594,-1.3571,-1.3572,-1.3556,-1.3542,-1.3549,-1.3536,-1.353,-1.3531,-1.3516,-1.354,-1.3533,-1.3515,-1.349,-1.3528,-1.354,-1.3545,-1.3474,-1.3473,-1.3473,-1.3472,0,0,-1.3657,-1.3631,-1.3635,-1.3629,-1.3612,-1.3613,-1.362,-1.3614,-1.3615,-1.3607,-1.3612,-1.3611,-1.3595,-1.359,-1.3574,-1.3582,-1.3614,-1.3563,-1.3562,-1.3573,-1.3641,-1.3654,-1.366,-1.3602,-1.3603,-1.3603,-1.3642,0,-1.3695,-1.3705,-1.3684,-1.3699,-1.37,-1.3672,-1.3678,-1.3668,-1.3656,-1.3655,-1.3642,-1.3641,-1.362,-1.3617,-1.3623,-1.3609,-1.3628,-1.3606,-1.3606,-1.3607,-1.361,-1.3667,-1.3681,-1.3717,-1.3646,-1.3647,-1.3648,0,-1.3741,-1.3735,-1.3751,-1.3733,-1.3733,-1.3738,-1.3732,-1.3732,-1.372,-1.3711,-1.3706,-1.3687,-1.3693,-1.3669,-1.3677,-1.3663,-1.3662,-1.3655,-1.3656,-1.3655,-1.3629,-1.3667,-1.3729,-1.3734,-1.3655,-1.3654,-1.3654,0,-1.3789,-1.3785,-1.3794,-1.3789,-1.3769,-1.3774,-1.3766,-1.3753,-1.3751,-1.3745,-1.3744,-1.3739,-1.3736,-1.3733,-1.3713,-1.3698,-1.3724,-1.3699,-1.3716,-1.3717,-1.3722,-1.3722,-1.3785,-1.3722,-1.3722,-1.3722,-1.3722,0,-1.3834,-1.3845,-1.3815,-1.382,-1.3831,-1.3807,-1.3818,-1.3807,-1.3797,-1.38,-1.3775,-1.3778,-1.3752,-1.3753,-1.3737,-1.3746,-1.3745,-1.3738,-1.3734,-1.374,-1.3741,-1.3739,-1.3736,-1.3724,-1.3723,-1.3723,-1.3723,0,-1.3889,-1.387,-1.3877,-1.3857,-1.3853,-1.3862,-1.3845,-1.3849,-1.3835,-1.3839,-1.3839,-1.3817,-1.3817,-1.3797,-1.3792,-1.3782,-1.3797,-1.3788,-1.3801,-1.3798,-1.3817,-1.3815,-1.3879,-1.3887,-1.382,-1.3821,-1.3821,0,-1.3919,-1.3926,-1.3908,-1.3908,-1.3901,-1.3901,-1.3899,-1.3876,-1.3874,-1.3863,-1.3869,-1.3866,-1.3863,-1.3863,-1.3847,-1.3844,-1.3835,-1.3858,-1.3834,-1.384,-1.3835,-1.3835,-1.3835,-1.3862,-1.3863,-1.3864,-1.3865,0,-1.3974,-1.3964,-1.3962,-1.3957,-1.3955,-1.3949,-1.3942,-1.3944,-1.3918,-1.3919,-1.3918,-1.3915,-1.3911,-1.3909,-1.3902,-1.3894,-1.3875,-1.3872,-1.3876,-1.3882,-1.3889,-1.3886,-1.3814,-1.3871,-1.387,-1.387,-1.3869,-1.3869,-1.4017,-1.4023,-1.401,-1.4009,-1.4001,-1.3995,-1.3998,-1.3985,-1.3984,-1.3978,-1.3965,-1.3966,-1.3955,-1.3945,-1.3938,-1.3939,-1.3928,-1.3933,-1.3935,-1.3936,-1.394,-1.389,-1.3938,-1.3938,-1.3938,-1.3938,-1.3937,0,-1.4071,-1.4062,-1.4061,-1.4052,-1.4051,-1.4033,-1.4025,-1.4025,-1.4027,-1.4018,-1.4015,-1.4015,-1.4013,-1.3997,-1.3993,-1.3997,-1.3988,-1.3997,-1.3996,-1.3995,-1.3951,-1.3948,-1.4004,-1.4004,-1.4004,-1.4004,-1.4004,-1.4004,-1.4099,-1.4107,-1.4096,-1.41,-1.4091,-1.4092,-1.4088,-1.4083,-1.4076,-1.4076,-1.4075,-1.4064,-1.4053,-1.4048,-1.4046,-1.4041,-1.4041,-1.4053,-1.4045,-1.4004,-1.3998,-1.3992,-1.3989,-1.4053,-1.4053,-1.4089,-1.4089,-1.409]},{"header":{"parameterUnit":"m.s-1","parameterCategory":1,"la1":30.2991,"la2":30.254,"lo1":-89.0895,"lo2":-89.0444,"dy":0.0017,"dx":0.0017,"nx":28,"ny":28,"refTime":"2024-05-03T03:00:00:Z","depth":0,"parameterNumber":3,"parameterNumberName":"V-component_of_WINDS"},"data":[0,0,0,0,0,0,0,0,0,0,0,0,0,0,0,0,0,0,0,0,0,0,0,0,0,0,0,0,0,0,0,0,0,0,0,0,0,0,0,0,0,0,0,0,0,0,0,0,0,0,0,0,0,0,0,0,0,0,1.6424,1.6423,0,1.6351,1.6351,1.635,1.6309,1.6308,1.6308,1.6308,1.623,1.6228,1.6226,0,0,0,0,0,0,0,0,0,0,0,0,0,1.6524,1.6522,1.6424,1.6423,1.6422,1.6352,1.6351,1.635,1.6309,1.6308,1.6308,1.6308,1.6231,1.6228,1.6226,0,0,0,0,0,0,0,0,0,0,0,0,0,1.6469,1.6521,1.6424,1.6393,1.639,1.6352,1.6351,1.6349,1.6309,1.6308,1.6308,1.6308,1.6232,1.6229,1.6226,1.6212,0,0,1.6217,1.6216,0,0,0,0,0,0,0,0,1.6472,1.6465,1.6399,1.6395,1.6391,1.6339,1.6357,1.6303,1.6309,1.6339,1.6308,1.6308,1.6266,1.626,1.6247,1.6208,1.6205,1.6217,1.6215,1.6214,1.6213,0,0,0,0,0,0,0,1.6476,1.6468,1.6395,1.6398,1.6393,1.6382,1.6374,1.6347,1.6305,1.6337,1.6334,1.6326,1.6264,1.625,1.6245,1.6203,1.6217,1.6214,1.6212,1.6211,1.6149,1.6149,0,0,0,0,0,0,1.6485,1.6471,1.6397,1.6393,1.6432,1.638,1.6371,1.6356,1.6305,1.6297,1.6326,1.6324,1.6255,1.6248,1.6242,1.6222,1.6214,1.6211,1.6209,1.6149,1.6149,1.6149,0,0,0,0,0,0,1.6487,1.6479,1.64,1.6431,1.642,1.6379,1.6362,1.6355,1.6341,1.6297,1.6289,1.632,1.6255,1.6246,1.622,1.6219,1.6209,1.6207,1.6149,1.6149,1.6149,1.6183,0,0,0,0,0,0,1.649,1.648,1.6475,1.6432,1.6419,1.6381,1.6362,1.6353,1.6336,1.6333,1.6289,1.6281,1.6254,1.6224,1.6217,1.6215,1.6205,1.6149,1.6149,1.6149,1.6182,1.6184,1.6187,0,0,0,0,0,1.6494,1.6486,1.6475,1.6466,1.6412,1.6381,1.6373,1.6343,1.6336,1.633,1.6302,1.6283,1.622,1.6222,1.6213,1.621,1.6149,1.6149,1.6149,1.6181,1.6184,1.6186,0,0,0,0,0,0,1.6529,1.648,1.6467,1.6445,1.6418,1.6374,1.6365,1.6348,1.632,1.6318,1.6281,1.6271,1.6249,1.6227,1.6229,1.6194,1.6182,1.6181,1.6209,1.6212,1.6214,1.622,1.6202,0,0,0,0,0,1.6535,1.6514,1.6472,1.6457,1.6444,1.6407,1.6392,1.6372,1.6341,1.6329,1.6299,1.6269,1.6242,1.6226,1.6199,1.6178,1.6168,1.6172,1.6174,1.6176,1.6176,1.6163,1.6164,1.615,1.615,1.615,0,0,1.6545,1.6516,1.6505,1.6463,1.644,1.6419,1.6398,1.6376,1.636,1.6325,1.6299,1.6276,1.624,1.6216,1.6204,1.6197,1.6177,1.6177,1.6179,1.6177,1.6163,1.6165,1.6166,1.615,1.615,1.615,0,0,1.6554,1.653,1.6515,1.6492,1.6457,1.6433,1.6429,1.6388,1.6372,1.6345,1.6319,1.6298,1.6254,1.6229,1.6211,1.6211,1.6192,1.6203,1.6216,1.6204,1.6205,1.6206,1.6206,1.6207,1.6203,1.6203,1.6203,0,1.6572,1.654,1.651,1.649,1.6472,1.6441,1.6425,1.6404,1.6361,1.6349,1.6342,1.6286,1.6259,1.623,1.623,1.6216,1.6211,1.6208,1.6208,1.6208,1.6208,1.6208,1.6208,1.6204,1.6204,1.6204,1.6204,0,1.6563,1.6542,1.6534,1.6495,1.6476,1.6459,1.6424,1.6409,1.639,1.6366,1.6339,1.6306,1.6273,1.6264,1.6245,1.6232,1.6228,1.6215,1.6203,1.6212,1.6211,1.6211,1.6207,1.6206,1.6206,1.6205,0,0,1.6593,1.6538,1.6535,1.6518,1.6477,1.6459,1.6439,1.6408,1.6395,1.6366,1.6349,1.6312,1.63,1.6279,1.6257,1.6246,1.6249,1.6234,1.6233,1.6238,1.6233,1.6244,1.6244,1.6236,1.6236,1.6236,1.6236,0,1.6596,1.6561,1.6533,1.6509,1.6488,1.6458,1.6441,1.6414,1.6391,1.6369,1.6343,1.6318,1.6304,1.6291,1.6279,1.6251,1.6247,1.6251,1.6219,1.6218,1.6229,1.6243,1.6255,1.6257,1.6235,1.6235,1.6235,0,1.6595,1.657,1.6543,1.6505,1.6495,1.6481,1.645,1.643,1.6397,1.6381,1.6359,1.6336,1.6313,1.6303,1.627,1.6273,1.6258,1.6243,1.6242,1.6238,1.6227,1.624,1.6256,1.6257,1.6234,1.6234,1.6234,0,1.662,1.6578,1.6558,1.6543,1.6497,1.6488,1.6468,1.6436,1.6419,1.6391,1.638,1.6349,1.6333,1.6309,1.6278,1.6274,1.6249,1.6236,1.6235,1.6236,1.6231,1.6232,1.6246,1.6221,1.6221,1.6221,1.6221,0,1.6627,1.6612,1.6568,1.6555,1.6538,1.6505,1.6488,1.6465,1.6437,1.6419,1.639,1.6373,1.6333,1.6311,1.6286,1.6264,1.6256,1.6242,1.6236,1.6245,1.6247,1.6235,1.6234,1.6221,1.6221,1.6221,1.6221,0,1.6652,1.6622,1.6597,1.6556,1.6545,1.6534,1.6499,1.6485,1.646,1.6437,1.643,1.6391,1.6364,1.6331,1.6292,1.6275,1.6255,1.6245,1.6267,1.6263,1.6264,1.6264,1.627,1.6269,1.6246,1.6246,1.6246,0,1.6658,1.6646,1.6605,1.6591,1.6573,1.6551,1.6534,1.6501,1.6484,1.6446,1.6437,1.6407,1.6382,1.634,1.6307,1.6278,1.6267,1.6271,1.6262,1.6272,1.6268,1.6269,1.6268,1.6274,1.6274,1.6275,1.6275,0,1.6674,1.6659,1.6637,1.6609,1.6589,1.6565,1.654,1.653,1.6491,1.6473,1.6446,1.6427,1.6388,1.6359,1.6325,1.6303,1.6283,1.6278,1.6276,1.6286,1.6299,1.6292,1.6273,1.6278,1.6278,1.6278,1.6277,1.6277,1.6689,1.6678,1.6647,1.6622,1.66,1.6577,1.6562,1.6536,1.6513,1.648,1.6462,1.6435,1.6402,1.6355,1.6334,1.6312,1.6304,1.6302,1.6301,1.6301,1.6304,1.6302,1.6305,1.6305,1.6305,1.6305,1.6305,0,1.6704,1.6683,1.666,1.6627,1.6607,1.659,1.6561,1.6546,1.6523,1.6495,1.6471,1.6439,1.6411,1.6377,1.6347,1.6335,1.6325,1.6328,1.6329,1.6324,1.6312,1.6317,1.6337,1.6337,1.6337,1.6337,1.6337,1.6337,1.6709,1.6689,1.6671,1.6639,1.6617,1.6591,1.6576,1.6555,1.6532,1.6499,1.6476,1.6454,1.6424,1.6391,1.6364,1.6354,1.6345,1.6351,1.6339,1.6328,1.6325,1.6322,1.6327,1.6349,1.6349,1.6353,1.6353,1.6353]}]]